When you browse on this site, cookies collect data to enhance your experience and personalize the content and advertising you see.
Visit our Privacy Policy to learn more. By continuing to use the site, you agree to this use of cookies and data.
  • In Slovakia
  • List of Countries
  • For 7 days
  • Water Temperature
  • Satellite Maps
  • Weather Map
  • Weather Widgets
  • user-avatar
    Login

    Hourly Weather Kavarna

    Today, 24 March, Sunday

    Time Temperature Precipitation Wind Pressure Humidity
    00:00 +6°C° 0 mm 2 mps 767 mmHg 64%
    01:00 +6°C° 0 mm 2 mps 767 mmHg 63%
    02:00 +4°C° 0 mm 3 mps 766 mmHg 63%
    03:00 +4°C° 0 mm 3 mps 766 mmHg 60%
    04:00 +4°C° 0 mm 4 mps 766 mmHg 57%
    05:00 +4°C° 0 mm 4 mps 766 mmHg 54%
    06:00 +4°C° 0 mm 4 mps 766 mmHg 54%
    07:00 +5°C° 0 mm 5 mps 766 mmHg 55%
    08:00 +6°C° 0 mm 5 mps 766 mmHg 55%
    09:00 +7°C° 0 mm 5 mps 766 mmHg 52%
    10:00 +8°C° 0 mm 4 mps 766 mmHg 49%
    11:00 +10°C° 0 mm 4 mps 766 mmHg 46%
    12:00 +10°C° 0 mm 4 mps 766 mmHg 46%
    13:00 +11°C° 0 mm 3 mps 766 mmHg 46%
    14:00 +11°C° 0 mm 4 mps 765 mmHg 46%
    15:00 +10°C° 0 mm 4 mps 765 mmHg 51%
    16:00 +8°C° 0 mm 4 mps 765 mmHg 55%
    17:00 +8°C° 0 mm 4 mps 764 mmHg 60%
    18:00 +7°C° 0 mm 4 mps 764 mmHg 63%
    19:00 +7°C° 0 mm 3 mps 764 mmHg 67%
    20:00 +5°C° 0 mm 3 mps 764 mmHg 70%
    21:00 +5°C° 0 mm 3 mps 764 mmHg 70%
    22:00 +5°C° 0 mm 4 mps 764 mmHg 70%
    23:00 +5°C° 0 mm 4 mps 764 mmHg 71%

    Tomorrow, 25 March, Monday

    Time Temperature Precipitation Wind Pressure Humidity
    00:00 +5°C° 0 mm 4 mps 764 mmHg 71%
    01:00 +5°C° 0 mm 4 mps 763 mmHg 72%
    02:00 +5°C° 0 mm 4 mps 763 mmHg 73%
    03:00 +5°C° 0 mm 5 mps 763 mmHg 73%
    04:00 +5°C° 0 mm 5 mps 762 mmHg 73%
    05:00 +5°C° 0 mm 5 mps 762 mmHg 73%
    06:00 +6°C° 0 mm 5 mps 762 mmHg 70%
    07:00 +7°C° 0 mm 5 mps 761 mmHg 66%
    08:00 +8°C° 0 mm 5 mps 761 mmHg 63%
    09:00 +9°C° 0 mm 5 mps 761 mmHg 58%
    10:00 +12°C° 0 mm 5 mps 760 mmHg 53%
    11:00 +13°C° 0 mm 6 mps 760 mmHg 48%
    12:00 +13°C° 0 mm 6 mps 760 mmHg 49%
    13:00 +12°C° 0 mm 7 mps 759 mmHg 49%
    14:00 +14°C° 0 mm 7 mps 759 mmHg 50%
    15:00 +12°C° 0 mm 7 mps 758 mmHg 53%
    16:00 +11°C° 0 mm 7 mps 758 mmHg 57%
    17:00 +10°C° 0 mm 7 mps 757 mmHg 61%
    18:00 +10°C° 0 mm 7 mps 757 mmHg 63%
    19:00 +9°C° 0 mm 6 mps 757 mmHg 66%
    20:00 +8°C° 0 mm 6 mps 757 mmHg 69%
    21:00 +8°C° 0 mm 6 mps 757 mmHg 72%
    22:00 +8°C° 0 mm 6 mps 757 mmHg 74%
    23:00 +8°C° 0 mm 6 mps 757 mmHg 76%

    Day after tomorrow, 26 March, Tuesday

    Time Temperature Precipitation Wind Pressure Humidity
    00:00 +8°C° 0 mm 6 mps 757 mmHg 79%
    01:00 +8°C° 0 mm 6 mps 757 mmHg 81%
    02:00 +8°C° 0 mm 5 mps 757 mmHg 84%
    03:00 +7°C° 0 mm 5 mps 757 mmHg 85%
    04:00 +7°C° 0 mm 5 mps 757 mmHg 85%
    05:00 +7°C° 0 mm 4 mps 757 mmHg 86%
    06:00 +8°C° 0 mm 4 mps 757 mmHg 82%
    07:00 +10°C° 0 mm 4 mps 757 mmHg 79%
    08:00 +10°C° 0 mm 4 mps 758 mmHg 75%
    09:00 +12°C° 0 mm 3 mps 758 mmHg 69%
    10:00 +13°C° 0 mm 3 mps 758 mmHg 63%
    11:00 +14°C° 0 mm 3 mps 759 mmHg 57%
    12:00 +14°C° 0 mm 3 mps 759 mmHg 57%
    13:00 +16°C° 0 mm 3 mps 759 mmHg 57%
    14:00 +16°C° 0 mm 3 mps 759 mmHg 57%
    15:00 +14°C° 0 mm 4 mps 759 mmHg 63%
    16:00 +13°C° 0 mm 6 mps 760 mmHg 68%
    17:00 +10°C° 0 mm 8 mps 760 mmHg 74%
    18:00 +10°C° 0 mm 7 mps 760 mmHg 76%
    19:00 +9°C° 0 mm 6 mps 761 mmHg 78%
    20:00 +8°C° 0 mm 5 mps 762 mmHg 79%
    21:00 +8°C° 0.1 mm 5 mps 762 mmHg 79%
    22:00 +8°C° 0.1 mm 5 mps 763 mmHg 79%
    23:00 +8°C° 0.1 mm 6 mps 763 mmHg 79%

    27 March, Wednesday

    Time Temperature Precipitation Wind Pressure Humidity
    00:00 +8°C° 0 mm 5 mps 763 mmHg 77%
    01:00 +8°C° 0 mm 5 mps 763 mmHg 75%
    02:00 +8°C° 0 mm 5 mps 763 mmHg 73%
    03:00 +7°C° 0 mm 5 mps 764 mmHg 73%
    04:00 +7°C° 0 mm 5 mps 764 mmHg 74%
    05:00 +6°C° 0 mm 5 mps 764 mmHg 75%
    06:00 +7°C° 0 mm 5 mps 764 mmHg 71%
    07:00 +7°C° 0 mm 5 mps 765 mmHg 67%
    08:00 +8°C° 0 mm 5 mps 765 mmHg 63%
    09:00 +9°C° 0 mm 5 mps 766 mmHg 57%
    10:00 +11°C° 0 mm 4 mps 766 mmHg 51%
    11:00 +12°C° 0 mm 4 mps 767 mmHg 44%
    12:00 +12°C° 0 mm 4 mps 767 mmHg 45%
    13:00 +12°C° 0 mm 4 mps 767 mmHg 45%
    14:00 +12°C° 0 mm 5 mps 767 mmHg 45%
    15:00 +12°C° 0 mm 5 mps 767 mmHg 49%
    16:00 +10°C° 0 mm 5 mps 767 mmHg 53%
    17:00 +9°C° 0 mm 5 mps 767 mmHg 57%
    18:00 +8°C° 0 mm 5 mps 768 mmHg 61%
    19:00 +7°C° 0 mm 4 mps 769 mmHg 65%
    20:00 +6°C° 0 mm 4 mps 769 mmHg 69%
    21:00 +6°C° 0 mm 4 mps 769 mmHg 72%
    22:00 +6°C° 0 mm 4 mps 770 mmHg 74%
    23:00 +6°C° 0 mm 4 mps 770 mmHg 76%

    28 March, Thursday

    Time Temperature Precipitation Wind Pressure Humidity
    00:00 +5°C° 0 mm 4 mps 770 mmHg 75%
    01:00 +5°C° 0 mm 4 mps 770 mmHg 73%
    02:00 +5°C° 0 mm 4 mps 771 mmHg 72%
    03:00 +5°C° 0 mm 4 mps 771 mmHg 70%
    04:00 +5°C° 0 mm 4 mps 771 mmHg 69%
    05:00 +4°C° 0 mm 4 mps 771 mmHg 67%
    06:00 +5°C° 0 mm 5 mps 771 mmHg 63%
    07:00 +6°C° 0 mm 5 mps 771 mmHg 60%
    08:00 +5°C° 0 mm 6 mps 772 mmHg 56%
    09:00 +7°C° 0 mm 6 mps 772 mmHg 54%
    10:00 +7°C° 0 mm 6 mps 772 mmHg 51%
    11:00 +8°C° 0 mm 6 mps 772 mmHg 49%
    12:00 +8°C° 0 mm 7 mps 772 mmHg 49%
    13:00 +8°C° 0 mm 7 mps 772 mmHg 49%
    14:00 +8°C° 0 mm 7 mps 772 mmHg 49%
    15:00 +8°C° 0 mm 7 mps 771 mmHg 52%
    16:00 +6°C° 0 mm 7 mps 771 mmHg 54%
    17:00 +6°C° 0 mm 8 mps 771 mmHg 56%
    18:00 +5°C° 0 mm 7 mps 771 mmHg 60%
    19:00 +4°C° 0 mm 7 mps 772 mmHg 63%
    20:00 +4°C° 0 mm 7 mps 772 mmHg 66%
    21:00 +3°C° 0 mm 7 mps 772 mmHg 63%
    22:00 +3°C° 0 mm 7 mps 772 mmHg 59%
    23:00 +3°C° 0 mm 7 mps 772 mmHg 56%

    29 March, Friday

    Time Temperature Precipitation Wind Pressure Humidity
    00:00 +3°C° 0 mm 7 mps 772 mmHg 57%
    01:00 +3°C° 0 mm 7 mps 772 mmHg 57%
    02:00 +2°C° 0 mm 8 mps 772 mmHg 58%
    03:00 +2°C° 0 mm 8 mps 772 mmHg 59%
    04:00 +2°C° 0 mm 8 mps 772 mmHg 60%
    05:00 +2°C° 0 mm 7 mps 772 mmHg 62%
    06:00 +2°C° 0 mm 8 mps 772 mmHg 60%
    07:00 +4°C° 0 mm 8 mps 772 mmHg 59%
    08:00 +3°C° 0 mm 9 mps 772 mmHg 57%
    09:00 +5°C° 0 mm 9 mps 772 mmHg 55%
    10:00 +6°C° 0 mm 9 mps 772 mmHg 53%
    11:00 +6°C° 0 mm 9 mps 772 mmHg 52%
    12:00 +6°C° 0 mm 9 mps 772 mmHg 52%
    13:00 +6°C° 0 mm 9 mps 772 mmHg 52%
    14:00 +6°C° 0 mm 9 mps 771 mmHg 52%
    15:00 +6°C° 0 mm 9 mps 771 mmHg 54%
    16:00 +5°C° 0 mm 9 mps 771 mmHg 55%
    17:00 +5°C° 0 mm 9 mps 770 mmHg 57%
    18:00 +3°C° 0 mm 9 mps 770 mmHg 60%
    19:00 +2°C° 0 mm 8 mps 770 mmHg 62%
    20:00 +2°C° 0 mm 8 mps 770 mmHg 65%
    21:00 +3°C° 0 mm 7 mps 770 mmHg 65%
    22:00 +3°C° 0 mm 7 mps 770 mmHg 65%
    23:00 +2°C° 0 mm 6 mps 770 mmHg 65%
    Show more